sat.trackr.live / text

‹ back to catalog

FLOCK 4H-5

NORAD 66708 · 2025-276AU

PAYLOAD ACTIVE UNKNOWN

§ Identity

Operator
Country
US
Launch date
2025-11-28
Launch site
AFWTR
Launch vehicle
Mass (kg)
RCS (m²)

Purposes: earth_obs

External: N2YO · Heavens-Above · Gunter

§ Orbital elements

Epoch: 2026-09-19T23:15:27.546912Z

Period
94.64 min
Inclination
97.4097°
Eccentricity
0.0001653
Mean motion
15.21550327 rev/d
Perigee alt
500.0 km
Apogee alt
502.3 km
Semi-major
6,879.3 km
B*
1.9133e-4
RAAN
335.2019°
Arg perigee
69.4154°
Mean anomaly
290.7259°
Rev number
4,484

§ Raw data

FLOCK 4H-51 66708U 25276AU  26262.96906883  .00004242  00000+0  19133-3 0  99972 66708  97.4097 335.2019 0001653  69.4154 290.7259 15.21550327 44847

JSON: /api/v1/satellites/66708 · /tle

For live sub-satellite position, see the globe view (requires WebGL).

§ Visibility from observer

Set your observer location to see the next 7 days of passes ≥ 10°. The values pass through the URL so the page stays shareable.

No JS? Fill the form by hand. The geolocation button needs JavaScript.